COSMOS 1288

导读

**COSMOS 1288卫星摘要** COSMOS 1288(宇宙1288)是苏联(CIS,独联体前身)于1981年8月6日发射的人造卫星,隶属于苏联规模最大的"宇宙"号卫星系列。该系列混编各类应用卫星、科学卫星与技术试验卫星,多数为军用卫星,包含侦察、通信、导航等多种用途,也纳入部分未能入轨的试验航天器,是冷战时期苏联航天探索的重要组成部分。

Basic Information
目录编号:
12637
目录名称:
COSMOS 1288
国际标识:
1981-074B
轨道中心:
EARTH
卫星名称:
COSMOS 1288
卫星全名:
--
卫星状态:
在轨 (已飞行16475 天)
发射日期:
1981-08-06 UTC
国别 :
俄罗斯(独联体) (CIS)
星等 :
--
This satellite is enrolled in the Space Conjunction Data Service (SCDS) and the current flight risk assessment level is: No High Risk
Orbit Information
数据来源 国际轨道数据
星历时间: 2026-09-14T01:15:51+0800
15小时前
查看轨道信息
半长轴: 7856.407km
偏心率: 0.0017224
轨道倾角: 74.037°
近地点辐角 142.545°
升交点赤经 351.560°
平近点角 24.012°
近地点: 1464.738km
远地点: 1491.802km
周期: 115.504分钟
每日圈数: 12.467139
Detailed Information
使用方式:
暂无
2D Orbit Map
3D Orbit Map
Orbit Altitude Analysis Chart
Orbit Inclination Analysis Chart
Orbit Comprehensive Analysis Chart
View Comprehensive Chart
Conjunction Data List
Event ID Objects TCA Miss Dist (km) Collision Risk Probability Collision Risk Index (CRI) Action
CDM_260915-023701-263704-100525
2026-09-15T
02:37:28+0000
1.251 km
极远距离
8.640083E-6 低风险 0.54
CDM_260915-071701-058701-263724
2026-09-15T
07:17:09+0000
2.806 km
极远距离
1.150399E-6 低风险 0.36
Miss Distance Evolution Trend with All Objects Subscribe to Flight Safety Assessment
Collision Probability Evolution Trend with All Objects Subscribe to Flight Safety Assessment